DELTA 1 DEB, 42638

Orbit data source: Space-Track

DELTA 1 DEB, 42638 is space debris in SSO originally from a launch on Thu, 12 Jun 1975 UTC launched from the Air Force Western Test Range (AFWTR). Debris objects in space refer to the collection of defunct objects orbiting the Earth. Examples of debris include non-operational satellites, rocket bodies, and fragments generated from explosions, collisions, or faulty payload assembly.

Loading next visibility...
Identifier
42638, 1975-052LX
Orbit
SSO
Country
Flag of USUS
Related business
Manufacturer
Unknown
Mission
Spacecraft
Bus & Motor
Unknown
Mass
Unknown
Launch date (UTC)
1975-06-12 (51 years ago)
Launch vehicle
Unknown
Launch site
Air Force Western Test Range (AFWTR)
Object type
Payload
Rocket body
Debris
Shape & HBR
Unknown shape, 0.1 m
Radar Cross Section
Small (<0.1 m²)

Expand to show TLE details & history
Last TLE update: 1 week ago

TLE from 1 week ago
0 DELTA 1 DEB
1 42638U 75052LX  26120.55860815  .00001754  00000-0  21754-2 0  9999
2 42638  99.7398 234.8265 0047344 166.2986 193.9454 13.65880002572282
Epoch: 2026-04-30T13:24Z
TLE epoch observation values (Epoch: 2026-04-30T13:24:23.744Z)
Latitude
0.00001°
Longitude
175.22408°
Altitude
1,051.189 km
Speed
7.309 km/s
True Right ascension
15h 39m 18s
True Declination
0° 00' 00"
Sunlit
Object was in full shadow at epoch
Visualization orbit readout
Latitude
Unknown
Longitude
Unknown
Altitude
Unknown
Speed
Unknown
Apparent Right ascension
Unknown
Apparent Declination
Unknown
Sunlit
N/A
Visualization observer readout
Local Sidereal Time
01:07:25
Azimuth
Unknown
Elevation
Unknown
Doppler factor
Unknown
Orbital elements
Apogee altitude
1,046.668 km
Perigee altitude
976.695 km
Semi-major axis
7,389.819 km
Eccentricity
0.00473
Inclination
99.7398°
RAAN
234.8265°
Arg. of periapsis
166.2986°
True anomaly
193.8154°
Mean anomaly
193.9454°
Eccentric anomaly
193.88033°
Mean motion
3.41659 °/min
Orbital period
105.37 mins
BSTAR
0.0021754
Loading maneuver chart data...
Computing Atmospheric mass density...

Documentation

Showing up to 5 results
|